Theta_e
345 345 347 347 346 343 343 342 342 340 340 339 339 340 342 341 339 337 339 339 338 337 335 335 336 336 335 334 336 337 338 337 336 335 336 336 336 334 332 332 333 335 333 334 334 334 334 333 333 333 333 332 332 332 331 330 329 329 329 328 328 328 327 327 328 327 327 327 327 327 327 328 328 328 328 328 328 328 328 328 328 328 328 328 328
345 346 345 345 344 342 342 343 341 341 341 340 340 340 341 341 339 337 336 338 337 336 334 333 332 334 334 335 338 337 337 336 336 335 336 336 337 335 333 334 334 338 338 336 337 336 335 335 335 334 334 333 331 330 330 331 330 330 330 327 327 327 327 327 328 328 328 328 327 327 327 327 327 328 328 327 327 327 327 327 327 327 327 327 327
344 344 343 343 342 341 341 342 340 340 341 340 342 341 341 341 341 338 337 337 337 337 334 333 333 333 336 336 336 337 336 337 337 336 335 335 335 337 335 336 338 341 341 339 338 338 336 335 335 335 334 333 332 332 332 332 331 331 330 329 328 328 328 327 327 327 328 328 327 327 327 328 327 327 327 327 327 327 327 327 327 328 327 327 326
344 343 342 342 341 340 341 341 340 341 341 341 340 340 339 340 341 342 340 339 337 336 338 336 334 334 337 336 337 336 336 336 337 337 336 336 334 336 336 335 340 341 341 340 339 338 337 336 335 334 334 334 333 334 333 332 331 330 330 329 329 329 329 328 327 327 327 327 327 327 327 327 327 327 327 326 326 326 326 326 326 327 327 328 328
343 343 341 341 342 340 341 341 342 342 341 341 341 340 339 339 341 342 339 336 335 334 335 335 335 336 337 336 337 336 337 336 337 336 335 336 335 334 336 337 339 340 340 339 338 337 337 336 334 336 334 334 334 334 334 333 333 332 331 331 330 330 329 328 329 329 328 327 327 326 327 327 327 326 326 325 325 325 325 326 326 327 327 327 328
343 342 341 341 342 340 340 340 342 344 343 341 339 339 337 337 339 340 337 334 333 333 333 333 335 336 336 337 337 337 337 336 336 337 336 336 336 336 336 337 337 339 339 338 338 337 337 336 336 335 333 335 335 335 334 334 334 334 333 332 330 330 331 330 329 327 327 328 327 327 327 327 327 326 326 325 325 325 325 325 326 326 326 327 327
343 342 341 341 340 340 340 341 342 342 341 340 339 339 337 336 337 337 337 337 336 334 334 333 333 334 335 337 337 337 337 336 337 336 335 337 337 337 337 337 338 338 338 339 338 337 337 336 335 335 335 334 334 335 336 335 336 335 334 333 332 331 330 329 330 329 329 329 328 328 327 327 327 327 326 326 326 325 326 325 325 325 326 327 327
342 342 341 340 340 340 340 342 341 341 341 341 340 337 338 337 339 338 335 335 335 333 333 333 335 334 335 337 337 337 337 337 337 337 336 337 335 336 337 337 338 337 337 339 341 339 336 336 336 336 335 335 334 334 336 336 336 336 335 334 332 332 331 330 330 330 330 330 329 328 328 328 328 328 327 327 326 326 325 325 325 325 326 327 327
341 341 340 338 339 340 339 339 340 340 341 341 339 338 339 338 340 339 340 335 335 333 332 333 333 334 335 335 336 338 336 338 337 336 336 335 335 335 336 337 338 337 340 340 341 340 335 333 334 335 336 335 335 335 335 336 335 334 335 335 334 333 332 331 331 331 331 331 331 330 329 328 328 328 328 327 326 327 326 325 325 325 326 327 328
338 338 337 338 339 335 336 337 340 340 338 338 339 340 341 340 337 336 337 336 334 333 332 332 332 332 334 334 335 337 335 337 337 337 335 333 334 335 335 337 337 337 337 338 338 337 338 335 332 334 336 337 337 336 336 333 335 335 335 335 335 334 333 332 332 332 332 331 332 332 330 329 329 328 328 328 328 327 327 325 325 326 326 329 329
335 335 335 337 337 336 336 335 338 340 338 336 336 336 337 340 337 334 335 335 334 334 332 332 331 331 332 333 334 336 334 334 337 338 336 335 334 334 335 336 337 337 337 336 336 335 336 337 336 337 337 335 336 336 336 335 335 335 335 335 335 335 334 333 334 333 332 332 332 331 331 330 330 330 330 329 329 328 328 326 326 326 329 329 329
336 336 336 337 337 336 333 335 337 337 335 333 333 333 333 335 336 334 333 333 334 332 332 332 331 331 330 331 332 332 332 334 336 337 335 334 334 335 336 337 338 336 335 335 335 335 335 335 336 335 336 336 335 338 335 334 335 336 334 332 335 335 334 334 332 334 332 332 331 331 331 331 331 330 330 330 330 329 329 328 327 329 329 329 328
338 338 337 337 336 336 334 335 336 334 333 333 334 333 335 336 334 335 333 330 329 332 332 333 329 326 328 328 328 331 332 334 334 334 334 337 336 334 335 336 336 336 335 333 333 335 335 335 336 336 336 337 337 334 336 336 336 335 335 334 334 333 332 333 333 333 332 332 331 331 331 331 331 331 330 331 330 330 330 329 329 329 329 327 327
337 336 335 337 337 336 334 334 333 333 332 333 332 332 331 331 331 329 330 328 326 330 332 331 325 324 322 321 323 326 327 329 332 332 333 336 335 333 333 335 333 334 333 333 335 335 334 335 336 336 336 337 337 338 338 337 337 336 335 335 333 333 333 331 333 334 332 332 332 332 332 332 331 331 331 331 331 330 330 329 329 328 327 326 325
335 335 334 335 337 336 333 332 333 332 330 329 330 330 331 330 332 330 325 330 327 329 332 333 327 328 328 325 319 318 322 326 331 332 333 332 334 333 332 336 333 332 333 334 334 336 334 334 335 336 337 337 337 337 337 335 337 337 337 336 335 335 334 333 333 333 332 332 333 332 331 331 331 332 332 332 331 331 330 329 327 326 325 325 325
334 334 334 335 337 334 333 334 334 334 330 328 330 330 330 330 330 330 328 323 325 327 331 332 332 327 321 321 321 321 317 319 322 326 330 331 332 333 332 334 333 331 333 331 333 334 333 334 335 337 337 338 337 336 337 337 336 336 336 336 336 335 335 334 333 334 332 333 332 331 329 329 328 330 332 331 331 330 329 327 326 326 325 325 324
334 334 333 334 335 334 332 333 333 333 331 331 331 332 332 332 331 329 328 327 326 327 329 331 333 334 329 323 320 318 319 321 322 322 327 327 329 329 330 331 332 331 332 332 333 334 332 332 335 336 336 336 336 336 336 335 335 336 336 335 335 334 333 333 334 333 334 333 331 329 327 327 328 328 330 330 330 329 328 327 326 326 325 324 323
334 333 333 334 335 334 332 331 331 331 331 330 331 332 331 331 331 331 329 330 328 325 326 330 331 331 332 334 328 321 320 322 321 316 326 329 328 328 329 331 334 331 332 332 331 331 332 333 335 335 335 336 335 335 334 335 335 334 335 335 332 334 331 332 333 333 333 331 330 329 328 328 330 330 330 330 330 328 327 326 325 324 323 322 321
334 333 333 334 334 333 333 333 331 331 332 332 330 329 329 331 332 329 327 328 328 324 325 327 329 330 330 331 330 328 329 323 319 322 317 323 326 327 328 329 330 332 330 331 331 331 331 331 333 333 334 335 334 334 334 334 334 333 330 328 329 329 328 329 332 333 332 331 330 329 328 328 330 330 330 329 329 327 326 325 324 323 321 321 320
335 334 334 333 332 332 332 332 332 332 333 332 331 331 331 332 333 331 330 330 330 327 326 327 324 325 329 328 329 330 331 331 328 323 321 318 318 325 327 328 329 331 331 330 331 331 331 332 331 331 334 332 334 333 334 334 334 334 333 324 325 325 326 326 326 329 330 330 330 330 329 328 329 329 328 328 327 325 324 323 322 321 320 320 320
336 335 334 332 332 332 333 333 333 333 333 333 335 332 332 332 332 332 329 329 330 331 330 328 328 327 326 326 328 330 331 331 330 330 324 320 318 318 320 325 328 329 329 330 331 331 331 331 330 331 333 333 333 333 332 333 333 333 329 322 323 323 322 322 318 317 320 329 329 329 329 328 327 326 325 325 324 324 323 322 321 320 319 318 318
335 336 334 332 332 332 333 333 333 334 334 333 331 331 332 332 333 332 332 329 330 330 330 330 330 330 330 329 328 328 328 326 326 326 326 325 320 319 321 320 320 325 329 329 330 331 331 332 332 330 331 331 331 331 332 332 332 331 326 319 321 321 321 319 316 316 319 323 328 327 328 327 327 326 325 325 325 323 321 320 319 319 319 319 318
335 334 334 333 331 332 333 333 335 335 334 334 331 331 331 333 334 332 331 330 329 331 330 331 332 331 330 329 329 328 325 324 325 326 326 325 323 321 322 323 323 322 326 329 329 330 331 332 330 330 331 331 330 330 331 331 329 326 321 320 320 321 319 316 314 315 320 323 325 326 326 327 327 325 325 324 323 321 320 320 320 320 319 319 318
334 333 330 331 332 331 333 333 332 333 333 335 334 332 332 333 334 333 331 329 331 330 330 329 329 328 329 330 331 331 331 329 329 329 328 326 324 322 321 324 324 324 326 327 328 328 329 329 329 330 330 329 330 330 330 329 328 321 325 320 320 320 319 317 313 314 313 316 318 320 324 325 325 324 323 321 321 321 322 321 320 319 318 318 318
331 331 329 331 332 331 332 332 332 333 334 333 332 331 331 332 334 333 333 330 329 330 329 328 329 328 329 331 332 332 330 333 332 330 330 330 328 323 324 325 322 323 324 325 324 327 328 328 329 329 328 329 328 328 329 328 328 324 324 321 318 318 317 320 319 313 311 311 314 319 323 323 323 323 322 321 322 322 321 321 321 318 319 319 317
332 332 332 332 332 332 333 333 335 335 333 331 330 330 331 332 333 333 333 333 332 331 330 330 331 331 332 331 332 331 331 333 331 331 329 328 326 325 323 323 325 322 323 323 324 322 324 327 328 328 328 328 327 328 327 326 329 321 321 325 321 315 315 317 320 318 314 314 316 317 321 324 323 323 323 323 323 323 322 317 315 313 310 311 313
332 333 334 333 332 333 333 333 335 335 332 331 330 331 332 332 333 333 334 333 332 332 331 331 329 329 331 331 332 332 332 332 331 330 330 329 328 327 323 319 319 321 320 322 322 322 324 326 327 327 329 328 328 327 326 326 325 321 319 329 328 314 314 315 318 319 317 316 316 315 317 318 320 322 322 322 320 316 315 316 314 311 311 311 314
333 334 334 334 332 333 332 333 334 334 332 331 331 332 333 333 333 333 332 333 332 331 331 331 329 330 328 330 329 329 332 332 331 332 330 331 331 330 327 324 318 316 318 318 319 320 325 323 325 328 327 328 327 327 323 322 325 317 318 330 328 323 314 313 317 320 318 316 314 313 313 314 315 315 314 315 316 315 316 316 315 313 310 312 316
332 333 332 331 332 332 331 332 333 332 332 332 333 333 333 333 332 332 331 332 331 331 332 331 330 331 330 330 328 329 330 331 331 331 332 331 331 330 328 326 325 320 316 316 318 320 323 325 320 324 327 327 327 326 323 322 321 323 327 328 329 328 317 313 313 315 314 313 314 312 310 311 311 311 314 316 317 317 317 314 312 311 310 313 316
332 332 332 331 331 330 330 331 332 332 332 332 332 331 331 330 330 332 332 332 330 331 331 331 331 331 330 330 330 329 331 331 330 332 330 330 330 329 329 329 328 324 321 317 318 322 322 325 325 322 324 325 325 325 325 324 319 320 323 325 327 327 314 311 311 309 309 310 310 308 307 308 310 313 315 315 316 314 312 311 310 309 310 313 316
332 331 331 331 331 330 331 331 332 332 332 331 330 328 328 328 329 331 332 330 329 329 330 331 331 330 329 328 330 330 333 333 333 332 331 330 330 329 329 330 329 327 325 321 317 324 326 322 324 326 324 324 324 324 322 323 320 320 323 324 323 317 313 316 310 309 309 308 307 306 308 308 308 309 312 313 314 313 312 312 311 310 312 314 312
331 331 330 330 330 331 331 332 332 333 331 331 330 330 329 329 330 330 331 330 328 328 329 330 330 331 330 329 329 330 331 332 332 330 330 329 330 328 329 329 328 329 328 324 319 321 326 325 324 324 324 324 323 322 323 322 318 316 322 321 322 313 321 323 310 308 309 307 307 307 311 310 306 308 310 311 312 313 312 313 310 311 312 309 308
330 330 330 330 330 331 331 331 332 331 330 330 331 330 329 329 329 330 330 329 328 329 329 329 329 330 330 330 330 330 331 329 328 329 329 328 328 328 329 328 326 328 326 325 320 319 322 325 326 321 321 323 321 323 322 322 320 319 317 321 321 321 321 322 323 310 307 306 306 305 305 305 305 309 309 307 310 310 310 308 307 307 306 306 306
330 329 329 330 331 331 331 332 332 331 330 329 329 329 328 328 328 329 330 329 328 328 329 328 328 329 330 329 330 329 327 328 328 329 329 326 325 325 326 326 325 325 326 323 321 318 319 320 321 320 319 321 321 321 322 322 321 320 318 318 319 319 318 320 320 322 306 307 306 305 305 304 303 304 305 304 303 304 306 305 304 304 304 303 301
330 330 330 331 331 331 331 332 332 331 331 329 328 328 328 328 328 329 330 329 329 328 328 328 328 329 328 328 329 328 327 327 329 330 330 327 326 325 325 324 325 324 323 324 322 319 319 318 322 318 319 318 321 319 320 322 322 320 317 316 316 316 317 319 318 318 306 306 304 304 303 303 303 303 302 302 302 302 302 302 302 303 302 302 301
329 330 331 331 331 331 331 331 331 330 330 329 328 328 328 329 328 328 328 329 329 329 328 328 328 328 328 328 329 329 328 329 330 330 330 329 326 325 324 324 324 322 324 323 323 322 320 317 317 317 318 318 318 319 318 319 319 317 317 316 316 315 315 315 316 316 310 304 304 304 304 304 303 303 302 301 301 301 301 301 301 301 301 301 301
329 330 331 331 331 330 330 330 330 330 329 328 328 328 328 329 328 328 328 329 329 329 329 329 328 329 329 328 329 329 329 329 330 330 330 330 328 326 324 324 322 323 321 321 321 321 319 317 317 317 317 318 319 318 317 316 316 317 317 316 315 314 314 315 314 314 310 304 304 303 302 302 303 302 302 302 302 301 301 301 301 301 301 301 301
328 329 329 330 330 331 331 332 332 331 330 329 328 327 327 328 328 329 329 329 330 329 329 329 329 329 329 329 329 329 328 329 330 330 331 330 328 327 326 324 323 322 321 320 320 319 318 318 320 314 315 314 314 315 316 317 316 314 314 315 315 314 314 314 314 313 313 313 314 312 306 304 302 300 302 303 301 301 301 301 301 301 301 301 300
328 327 327 328 330 331 333 333 332 332 331 330 329 329 328 327 327 328 328 328 328 329 329 328 328 329 329 329 330 330 328 329 330 330 330 330 329 329 328 327 325 323 320 319 318 317 317 317 317 317 315 315 317 314 312 315 316 316 315 313 312 312 314 315 314 314 313 312 309 305 307 307 306 308 304 301 301 301 301 301 301 301 300 300 299
327 327 327 327 329 330 333 334 334 333 332 331 331 329 328 328 328 328 327 327 327 327 327 327 328 328 328 327 328 329 330 331 332 332 331 328 330 330 330 329 328 325 322 320 318 315 316 316 315 315 315 314 314 316 311 311 311 311 312 313 311 311 313 316 316 315 315 313 313 312 306 304 304 303 300 302 302 302 302 302 302 302 301 300 299
327 327 327 328 327 328 331 332 332 332 332 332 331 330 329 327 328 327 327 326 326 325 325 326 327 327 327 327 327 329 330 328 321 321 322 323 332 330 331 331 329 327 325 323 319 318 314 314 314 316 314 314 314 313 310 310 311 312 314 313 313 314 315 315 314 315 313 313 313 311 310 314 312 313 312 313 312 309 307 303 306 304 302 301 300
327 326 326 326 326 327 328 330 331 331 331 332 323 314 318 329 329 328 328 327 326 326 325 325 326 327 327 327 328 325 321 318 314 310 309 312 315 325 334 332 330 328 327 321 317 315 315 313 314 314 313 313 313 315 314 314 315 317 315 313 311 312 312 312 314 315 313 312 311 312 313 315 315 314 314 314 316 317 317 317 318 313 307 301 300
324 324 324 324 325 327 327 328 327 328 328 325 306 303 305 311 327 330 329 328 328 327 326 325 324 325 327 328 329 324 321 317 318 304 306 304 305 306 311 316 321 330 325 321 320 321 319 318 317 316 315 316 317 317 316 316 316 315 314 314 313 313 311 309 309 316 315 315 314 313 314 318 317 314 316 317 319 321 320 321 307 304 302 301 300
321 321 323 323 323 324 325 325 325 322 320 301 297 299 300 302 311 330 330 329 328 328 327 326 326 326 326 327 328 328 328 328 326 318 308 299 301 300 298 299 299 300 298 318 324 324 322 320 320 319 319 320 320 318 316 316 314 314 315 314 313 312 312 311 311 312 317 316 316 314 315 320 317 318 319 319 320 321 318 310 304 302 300 300 300
315 314 315 316 316 318 320 321 319 317 314 294 293 294 296 297 298 313 330 329 328 328 328 328 328 327 326 326 325 325 320 315 318 320 317 310 297 295 296 297 296 294 292 292 294 315 325 324 320 319 320 321 320 318 318 316 317 314 314 312 313 313 313 312 313 314 315 317 314 313 314 319 319 319 320 321 321 321 320 307 301 300 300 299 299
304 305 307 308 309 310 312 314 314 313 313 298 293 293 294 294 294 304 328 329 329 329 328 328 328 327 327 327 325 323 321 319 318 317 316 314 313 312 313 313 311 306 299 298 298 299 313 322 320 320 320 317 316 319 318 318 315 313 313 312 315 313 314 313 316 315 316 318 318 319 317 319 318 318 317 320 321 320 320 312 305 302 302 301 300
300 300 301 302 304 305 306 309 311 310 307 293 293 294 294 293 293 301 326 327 328 328 328 328 327 327 327 326 326 324 321 319 318 315 315 314 313 312 311 309 309 307 306 306 307 312 314 317 318 316 315 317 318 319 318 318 319 320 319 318 318 317 318 318 318 318 316 316 318 316 313 317 317 314 315 317 316 314 315 308 303 302 301 300 299
300 301 301 302 301 302 303 305 307 307 304 292 292 293 293 294 296 319 324 324 323 322 321 321 322 324 324 324 323 321 320 318 305 299 305 312 310 309 307 307 305 304 301 297 295 298 306 309 309 309 308 305 301 311 314 319 320 319 317 318 319 319 317 315 312 315 312 313 313 313 312 312 316 312 312 313 313 311 312 313 307 303 301 300 300
299 299 299 300 301 301 301 301 301 302 302 295 292 295 294 296 306 320 319 318 317 315 314 314 315 315 317 320 321 320 318 314 299 295 298 304 311 309 308 307 306 306 304 302 295 293 293 293 293 293 293 293 293 293 293 294 310 314 316 313 312 314 314 313 311 309 309 309 307 309 309 307 312 310 308 311 312 309 310 311 317 308 304 303 302
297 298 299 299 299 299 298 299 298 299 300 297 292 294 296 298 307 314 314 314 313 311 310 310 311 311 308 304 312 319 316 309 294 295 296 307 312 310 308 306 305 304 304 303 301 298 294 294 293 293 294 294 294 295 294 296 297 307 315 312 313 311 310 308 311 308 310 311 307 309 307 306 309 309 307 308 307 312 311 314 315 314 305 302 302
298 299 299 298 298 298 298 297 297 297 297 297 292 292 294 296 305 311 309 309 309 309 308 306 306 306 305 301 297 303 311 302 292 293 294 306 313 312 310 308 305 304 304 305 303 302 303 303 303 302 300 300 303 303 301 296 297 302 309 308 310 308 305 306 307 306 305 309 306 308 304 305 305 308 306 302 302 305 310 313 311 310 310 310 311
Wind_Speed
5 6 5 4 3 4 4 4 4 4 4 5 5 4 3 3 3 3 3 5 5 6 6 6 5 4 5 6 6 5 5 5 5 5 5 4 4 6 7 7 7 6 6 7 8 7 7 8 8 8 8 8 8 9 9 9 9 8 8 8 8 9 9 10 10 11 11 12 12 12 12 13 13 13 13 13 14 14 14 15 15 15 16 15 15
5 4 5 4 4 5 4 3 3 3 4 5 5 4 4 3 3 4 4 5 5 6 6 6 6 4 4 5 5 5 5 5 5 5 5 5 5 6 7 6 3 5 2 7 8 7 8 8 8 8 9 9 9 9 8 9 9 9 9 7 7 8 9 9 10 10 11 11 11 12 12 11 13 14 13 13 13 13 14 14 14 14 15 14 15
5 5 4 4 4 5 5 4 3 3 4 4 3 4 4 4 4 4 4 5 5 5 6 6 6 6 5 6 6 6 5 5 5 5 5 5 5 6 7 4 4 3 3 6 6 7 7 7 7 7 8 9 8 8 9 8 8 8 8 9 8 8 8 8 10 10 11 11 11 11 12 12 12 12 12 12 13 13 14 13 13 14 14 13 13
6 5 5 5 4 5 4 5 4 4 4 4 4 4 4 4 3 3 3 4 4 4 4 5 5 5 5 6 6 5 5 5 5 5 4 5 5 5 6 6 7 8 9 10 10 7 4 3 6 7 8 9 8 8 9 8 9 8 7 8 8 8 8 8 9 9 10 11 12 12 12 11 11 11 11 11 12 12 12 12 13 13 13 13 13
5 6 6 5 5 6 6 5 5 4 4 5 5 4 3 3 2 3 4 4 5 5 4 4 4 4 4 6 5 5 5 5 5 4 4 5 5 6 6 6 6 9 10 9 8 6 5 5 1 3 6 8 8 8 9 9 9 9 8 8 8 8 8 8 8 9 9 10 10 11 11 11 11 10 10 9 10 11 11 11 11 11 11 12 12
6 6 6 6 6 6 6 6 5 4 4 5 5 5 4 4 5 6 4 5 5 6 6 5 4 4 5 6 5 5 5 5 5 4 4 4 4 6 6 5 5 5 7 10 8 7 7 5 3 6 3 4 8 8 8 9 9 9 9 8 8 8 8 9 9 9 9 9 9 9 10 10 10 9 9 9 9 9 10 10 11 11 11 11 11
7 6 7 6 6 6 6 5 5 5 4 6 6 5 5 5 5 7 6 5 6 6 6 6 6 6 6 6 5 5 5 5 4 4 4 4 4 6 5 5 3 4 4 4 7 7 7 5 5 3 7 5 1 5 10 9 9 9 10 10 9 8 9 9 9 10 10 9 9 8 8 8 9 9 8 8 8 9 9 10 10 9 9 11 11
7 7 6 6 6 6 5 5 6 5 5 5 5 6 5 5 5 6 7 7 7 7 5 6 6 6 6 6 5 5 4 4 5 4 4 4 5 5 5 4 4 3 1 2 2 5 7 4 5 5 6 7 7 4 8 9 8 10 10 10 10 11 10 10 10 10 10 9 9 9 8 8 7 7 7 7 8 9 9 9 9 9 9 10 10
8 8 6 7 7 2 4 6 6 7 6 5 6 6 6 5 5 5 5 8 7 8 6 6 6 6 6 6 6 5 5 5 4 4 4 5 5 5 4 4 3 2 1 2 1 1 4 5 4 4 4 7 8 7 6 7 8 5 10 12 11 11 11 10 10 11 10 10 10 9 9 8 8 7 7 7 8 8 8 7 7 8 10 10 11
7 7 6 6 6 7 7 6 6 6 6 5 5 5 5 6 6 6 5 6 6 7 7 6 6 6 5 6 6 5 5 4 4 4 5 5 6 5 4 3 2 2 1 1 1 1 0 2 1 1 2 1 7 8 7 5 7 8 8 10 12 12 12 11 11 10 10 10 10 9 8 8 7 7 7 7 7 7 8 7 7 8 9 11 11
7 6 6 7 8 7 5 7 7 7 6 6 6 6 7 6 7 8 6 5 7 7 7 7 6 6 6 7 6 6 5 6 4 4 4 5 5 5 4 3 2 2 1 1 0 1 0 1 1 1 3 4 1 8 10 8 8 9 10 9 11 13 12 12 11 10 10 9 8 8 8 7 7 7 7 7 8 8 8 7 7 8 11 11 12
8 8 8 7 8 8 9 9 7 6 5 6 7 6 8 9 8 9 8 6 5 6 7 7 6 7 6 5 5 5 5 5 5 4 4 4 5 5 4 3 2 2 1 1 1 0 0 1 0 0 1 5 4 5 9 8 7 9 6 4 9 11 12 12 10 10 9 8 8 7 6 7 7 7 8 8 9 9 8 8 8 10 11 13 14
5 6 7 8 8 8 8 6 7 7 7 5 7 8 8 8 8 7 9 8 6 7 8 8 8 6 6 5 4 2 2 6 6 4 5 4 4 4 3 2 2 3 2 2 2 2 1 1 1 1 2 2 5 5 5 5 5 5 8 9 7 7 6 9 9 9 8 7 6 4 4 5 6 7 8 10 9 9 8 9 10 11 13 13 13
6 5 6 9 8 7 6 8 8 7 6 5 6 7 6 5 7 8 6 8 5 7 10 10 7 7 6 5 3 3 2 0 5 5 6 3 3 4 3 3 4 3 3 3 3 3 3 2 2 2 2 2 3 4 5 5 5 2 4 8 6 9 8 7 9 9 8 7 6 6 6 6 6 8 9 10 10 11 11 11 12 12 12 13 13
7 6 8 9 9 8 8 10 11 7 5 5 5 6 6 6 8 8 8 4 5 2 7 9 6 8 7 6 4 4 1 3 3 4 4 3 2 4 5 5 6 5 4 4 3 2 2 2 2 3 3 3 3 4 4 5 7 6 3 6 10 11 11 13 10 10 8 9 11 11 10 9 9 9 10 11 11 11 11 11 11 12 12 12 13
6 8 10 11 8 8 9 9 8 6 8 6 7 7 7 6 5 5 8 8 5 7 9 7 4 9 7 5 5 5 4 6 4 3 2 5 6 5 4 4 6 6 5 5 4 3 3 3 3 3 3 4 4 4 4 5 8 9 8 5 7 11 11 11 10 10 11 12 12 11 10 9 8 9 11 12 12 11 11 11 12 12 12 12 13
7 8 9 9 8 8 8 8 4 6 6 5 6 7 9 7 7 8 8 7 7 5 8 7 7 5 4 6 4 4 5 6 8 4 4 4 5 5 6 6 6 7 5 5 4 3 3 4 3 4 4 5 4 4 4 5 5 6 8 8 8 9 9 11 11 12 13 12 11 11 10 9 9 8 10 11 12 12 12 11 12 12 12 13 13
7 8 7 7 8 7 10 9 7 7 5 5 5 5 7 9 11 8 7 4 6 3 5 6 7 4 2 2 1 1 6 7 8 4 4 4 5 6 7 8 6 7 6 5 5 4 3 4 4 5 4 4 4 4 5 5 5 4 5 8 8 10 10 12 13 13 12 12 12 12 11 11 10 10 11 13 14 13 12 12 12 12 12 12 12
8 9 9 10 9 7 8 8 7 6 4 5 7 7 7 6 5 5 8 7 8 9 8 6 4 5 3 2 1 1 3 9 7 7 6 4 6 6 6 7 7 7 7 6 6 5 4 3 4 4 5 4 4 4 4 6 7 8 9 8 7 7 9 10 11 12 13 13 12 12 12 12 12 13 14 14 14 12 12 12 12 12 11 11 11
7 8 8 5 9 8 9 8 8 8 8 7 9 8 6 6 8 8 6 7 9 7 7 8 8 9 8 6 4 2 6 6 6 9 8 8 6 3 5 6 5 5 6 6 6 6 5 4 5 5 5 4 4 4 4 5 6 7 6 7 7 8 9 10 10 11 12 12 12 11 11 12 13 13 13 13 12 12 12 11 11 11 11 10 10
9 8 7 7 6 7 7 7 8 9 7 7 7 8 8 9 11 10 11 10 9 7 7 8 10 7 8 8 5 4 6 4 5 3 6 8 7 8 6 4 5 6 6 6 6 5 5 5 4 4 4 4 4 4 4 4 4 5 7 7 8 8 9 9 9 9 9 10 11 11 11 11 11 12 12 12 11 11 11 11 11 11 10 10 10
7 6 7 8 6 6 7 9 9 7 7 8 7 7 8 10 11 12 11 10 8 9 10 8 9 7 8 7 7 5 5 4 5 5 3 6 7 10 9 8 8 7 7 6 6 6 6 5 5 5 5 4 4 4 4 4 4 5 6 8 8 8 8 8 8 9 9 9 10 11 12 11 12 12 11 11 11 11 10 10 10 10 10 10 10
5 5 7 11 11 10 8 8 7 7 8 8 7 7 7 9 9 10 11 10 6 7 5 7 6 6 8 9 9 9 8 9 8 8 6 6 6 8 8 9 8 9 8 6 5 6 6 5 5 5 5 5 4 4 4 4 4 6 8 8 9 9 9 9 10 10 9 9 9 10 11 12 12 12 11 11 10 10 10 10 10 10 10 9 10
6 6 8 9 9 8 7 8 8 8 8 6 6 9 8 9 9 9 8 7 9 10 10 10 11 8 8 8 8 8 7 7 6 7 7 6 7 8 8 8 7 7 7 5 5 5 5 6 5 5 5 5 4 4 4 4 5 9 8 8 9 9 9 9 9 9 9 9 9 8 10 11 11 11 11 10 10 10 10 9 9 9 9 9 9
7 7 8 10 9 9 9 8 8 8 7 6 7 6 6 8 8 9 9 10 10 11 10 12 11 9 9 8 8 7 7 4 4 5 5 5 6 7 8 8 8 8 7 6 5 5 5 6 6 5 5 5 4 4 4 4 5 6 6 7 9 9 10 9 9 9 9 9 8 8 9 11 11 11 10 10 10 9 9 8 7 4 5 6 7
7 8 8 8 8 8 8 8 8 8 8 9 7 7 6 6 8 8 9 8 9 12 11 10 9 10 7 7 8 8 7 4 5 5 6 6 6 7 8 6 7 8 7 6 6 6 6 7 6 6 5 5 4 5 4 4 5 7 6 6 7 9 9 10 9 8 8 8 7 6 7 8 9 10 10 9 8 7 8 7 5 4 4 4 4
7 7 8 9 9 10 10 10 8 7 9 7 7 7 9 9 8 7 7 7 9 9 10 10 7 9 7 7 8 8 8 5 6 7 6 7 7 8 9 9 7 7 7 7 7 8 6 7 7 6 6 5 5 5 5 5 5 7 5 6 6 8 9 9 9 8 8 7 6 6 6 6 6 7 6 6 8 8 7 6 4 4 4 4 4
6 5 8 7 9 9 9 10 8 8 9 8 10 9 8 7 6 7 7 6 8 10 9 9 9 9 11 11 7 8 6 6 8 6 7 6 6 7 9 9 10 9 8 8 7 7 8 7 6 6 6 6 5 5 5 5 5 8 5 5 5 6 8 9 8 8 7 7 6 5 5 4 5 7 7 7 7 7 6 5 4 3 3 3 3
7 7 8 8 8 8 8 8 8 9 9 9 8 7 7 6 6 7 8 7 8 9 8 8 9 10 10 11 11 9 9 7 5 4 5 6 7 8 9 9 9 9 9 9 9 7 9 9 7 7 7 6 6 5 6 6 7 8 7 5 5 6 8 8 9 8 8 7 6 5 5 5 6 7 7 7 6 6 6 6 6 4 3 3 2
8 7 9 9 9 10 9 9 9 9 9 8 6 3 3 3 6 8 8 8 8 7 7 8 8 8 9 10 10 9 8 8 8 9 9 8 7 8 9 9 9 9 8 9 7 8 7 8 7 6 7 7 6 6 5 6 8 8 6 6 5 5 10 9 8 8 8 7 7 6 6 6 7 7 7 7 6 6 6 6 6 6 5 5 5
8 8 9 10 9 9 8 8 9 9 8 7 9 9 8 6 8 8 8 8 8 7 7 8 8 8 9 10 9 8 7 7 7 6 6 7 8 8 9 8 8 8 8 7 6 6 6 8 8 5 7 8 6 6 5 5 7 7 5 5 6 6 7 7 8 8 8 8 7 6 6 6 7 7 6 6 6 6 7 7 7 7 7 7 7
8 9 9 10 10 10 9 10 10 9 9 9 9 9 10 9 8 7 8 9 8 9 8 7 7 8 9 9 9 7 6 5 5 6 8 8 7 8 8 8 7 7 7 7 7 4 6 6 7 7 6 7 7 7 7 6 5 7 6 5 4 7 6 6 9 8 7 7 7 6 6 6 6 6 6 6 7 7 7 7 8 8 9 9 9
9 9 10 10 10 10 10 10 10 10 10 9 9 8 9 9 8 9 8 9 9 8 8 9 8 8 9 9 8 9 7 7 7 8 7 7 7 7 8 8 8 6 7 8 7 4 3 1 3 5 6 6 6 7 8 7 6 7 6 5 5 5 6 6 6 10 9 7 6 6 6 6 6 6 7 7 7 8 8 8 9 10 10 10 10
9 10 10 10 9 9 10 11 10 10 9 9 10 9 9 8 9 7 8 9 9 9 8 8 9 8 8 8 8 6 9 11 7 9 7 7 8 8 8 9 7 7 8 9 8 6 4 4 4 4 5 6 6 7 8 8 7 7 8 6 5 6 6 5 6 6 13 9 8 8 7 7 7 7 8 8 8 8 8 9 10 10 10 10 10
8 9 10 10 10 9 9 9 10 9 9 8 8 9 9 9 9 9 8 9 9 9 9 9 9 8 8 8 7 8 8 9 8 7 7 8 8 9 9 7 6 8 8 9 7 7 6 5 6 6 6 6 7 7 8 6 5 6 7 7 7 6 6 6 6 5 12 10 10 9 9 8 8 8 8 8 8 8 9 10 10 10 11 11 11
8 8 9 10 10 9 9 9 9 9 9 9 9 8 9 9 9 9 9 9 9 9 9 9 9 9 9 9 9 9 9 10 10 9 7 7 7 8 9 8 10 9 7 7 8 6 6 5 6 7 7 7 7 4 6 5 6 6 6 6 6 7 7 6 7 6 8 11 10 9 9 9 9 9 9 9 9 9 10 10 11 11 11 11 11
8 8 8 8 9 9 9 10 10 9 9 10 10 9 8 8 8 8 9 9 9 9 9 9 9 9 10 10 9 9 9 10 9 9 8 9 8 8 8 8 9 7 5 7 8 7 6 7 5 5 5 6 5 5 6 7 6 6 6 7 7 7 7 6 6 6 5 10 9 10 9 10 10 10 10 10 10 11 11 12 12 12 12 13 13
9 8 7 8 9 10 10 10 10 10 10 10 10 10 9 9 8 7 7 8 8 8 8 9 9 9 9 8 8 9 10 10 9 9 9 10 8 8 10 9 9 7 8 8 8 7 7 7 6 5 5 7 6 5 6 7 7 7 6 7 6 6 6 7 7 5 5 5 5 6 8 9 12 13 12 11 12 13 14 14 14 14 15 15 15
8 8 7 9 9 10 10 10 10 10 10 10 9 9 9 9 8 8 7 7 7 7 8 8 9 9 8 7 8 9 10 10 9 10 10 10 8 9 10 9 9 8 7 8 9 9 7 6 5 6 6 6 6 6 6 6 6 6 6 6 7 7 7 7 7 6 5 5 6 7 7 6 5 5 11 14 15 15 15 15 15 15 15 15 15
7 7 8 9 10 10 9 8 7 9 9 9 8 8 8 8 8 8 7 7 7 7 7 7 8 8 6 8 9 9 9 9 10 9 9 9 9 9 8 7 8 8 8 9 6 5 6 6 6 6 5 6 5 2 4 6 6 6 7 7 8 8 7 6 6 5 4 5 6 6 9 9 10 12 13 13 14 15 15 13 13 14 15 16 16
6 7 7 8 8 10 10 8 8 8 8 7 7 7 7 8 7 7 7 7 7 7 7 7 7 8 6 8 10 9 9 7 4 4 5 2 5 8 8 8 8 8 8 4 6 1 6 6 6 5 5 5 6 6 6 7 10 9 8 7 7 5 4 4 5 6 6 5 5 6 6 6 6 7 6 8 8 10 12 15 13 14 15 15 15
5 5 6 7 7 9 8 7 8 9 8 5 7 11 9 8 8 6 6 7 7 7 7 7 8 8 8 8 8 9 6 7 8 7 7 7 7 8 6 7 7 7 6 8 9 10 9 8 8 7 7 7 7 8 9 9 6 4 6 7 8 5 3 3 3 4 4 5 5 6 6 4 5 6 6 7 4 5 6 5 5 4 5 7 9
2 3 4 5 6 7 7 7 6 6 4 4 11 12 10 8 7 6 7 7 7 7 7 8 8 8 8 9 8 7 8 7 7 8 10 10 11 10 3 3 4 6 6 7 7 11 10 9 7 7 8 8 8 8 8 7 6 7 6 6 5 5 5 5 6 4 2 4 5 5 4 3 3 5 4 4 2 2 2 2 6 5 8 10 11
3 1 2 3 4 3 3 5 5 3 2 3 9 10 10 10 7 6 6 6 7 7 7 8 7 8 8 8 7 6 7 8 6 6 4 3 2 4 7 7 6 7 8 2 8 8 5 8 7 8 8 8 7 7 7 7 7 6 5 5 6 6 6 6 5 4 4 2 3 3 3 3 2 3 4 2 1 1 2 3 5 6 8 9 9
5 4 4 2 2 2 2 3 4 3 2 1 5 8 9 10 9 6 6 7 7 8 7 8 8 8 7 7 7 5 4 7 6 5 6 7 8 10 10 11 11 10 8 6 6 3 8 6 5 6 8 6 6 7 7 7 6 7 6 6 6 6 6 5 3 3 4 1 2 4 4 3 2 3 3 1 1 1 1 6 7 6 5 6 8
9 8 8 7 6 5 5 2 3 2 1 5 5 7 9 10 10 9 5 6 7 7 8 8 7 8 9 8 8 7 6 7 6 7 8 8 8 7 6 5 5 7 7 9 7 4 3 8 11 9 3 1 3 2 4 5 7 7 7 7 6 6 4 2 5 5 4 2 2 3 4 2 2 2 3 1 2 3 3 2 2 3 2 2 3
10 8 8 9 8 7 7 5 2 3 3 9 8 7 9 10 11 10 5 5 6 6 6 8 7 7 8 6 7 7 8 8 7 9 9 9 8 7 8 8 8 7 7 6 4 2 3 4 3 5 6 4 4 5 4 3 2 0 1 1 3 3 6 7 7 6 6 4 2 2 3 1 2 3 4 3 4 5 4 5 9 6 6 5 5
11 11 10 10 9 9 9 8 6 4 4 10 7 4 8 10 12 7 5 5 5 5 4 4 4 4 5 6 6 7 7 7 8 10 10 10 11 10 9 9 9 9 10 8 13 13 9 8 7 6 7 8 8 6 5 4 5 6 7 7 6 6 6 5 5 5 4 4 4 2 1 3 1 3 3 4 4 6 6 6 8 8 6 6 6
11 11 12 12 10 10 10 10 9 7 6 9 9 1 8 13 10 5 6 5 4 4 4 3 3 3 2 3 5 7 8 7 10 12 15 15 12 11 10 9 8 10 9 8 14 19 18 17 16 14 13 14 14 14 13 12 6 2 6 6 5 3 3 3 4 3 3 2 3 2 2 3 2 4 5 4 5 6 6 5 3 4 3 6 10
11 10 8 9 10 11 12 11 11 8 8 11 11 5 2 5 6 7 6 6 6 5 5 4 4 4 6 10 3 6 8 9 12 14 14 12 11 11 11 12 11 11 9 7 8 9 16 17 15 15 14 14 16 17 16 15 14 7 1 3 4 2 3 2 1 3 4 4 4 4 3 2 3 3 4 5 6 3 3 3 3 3 6 10 8
11 10 10 10 8 8 10 12 19 13 10 11 13 8 7 5 1 4 6 7 7 6 6 6 5 5 5 8 11 7 6 10 12 10 10 8 11 10 11 11 11 11 8 7 8 9 7 8 7 8 11 10 9 9 11 16 14 11 8 6 2 2 4 2 2 2 4 4 4 5 3 1 3 1 3 5 4 4 2 1 4 6 7 7 7
Wind_Direction
171 180 180 182 165 191 193 181 170 164 164 166 172 174 174 155 145 147 142 144 145 147 151 148 144 150 146 144 145 136 138 136 131 133 127 124 126 125 142 140 146 160 131 126 131 139 140 140 139 139 135 128 120 116 117 117 116 113 108 113 112 107 108 105 101 97 96 95 92 89 82 85 90 86 80 80 78 75 74 73 71 68 67 65 64
171 174 185 179 169 190 204 200 182 174 180 170 170 179 176 165 157 151 149 150 149 148 151 148 149 142 160 146 140 143 142 143 142 138 133 133 127 131 159 170 164 351 206 133 132 142 150 150 146 142 134 129 126 124 126 127 121 120 119 115 107 110 108 109 107 105 104 103 103 96 91 87 86 88 87 82 79 77 74 73 75 73 72 72 69
177 179 187 181 181 187 203 209 201 190 200 171 155 167 180 180 166 155 155 152 146 147 154 148 151 160 161 149 144 146 150 149 148 144 143 141 139 143 146 121 69 73 54 121 135 134 143 151 154 146 137 137 139 139 133 129 127 127 127 127 129 121 116 113 109 104 104 100 97 96 91 90 85 81 81 85 85 80 77 75 72 74 74 71 71
183 181 190 192 188 196 197 212 208 200 201 186 160 160 185 186 170 147 134 129 125 134 130 136 147 160 157 146 147 153 153 155 155 154 150 145 147 151 147 136 92 76 80 79 89 93 97 127 149 150 149 148 148 144 139 131 131 131 130 131 131 123 121 118 110 107 104 101 99 99 100 93 90 90 86 82 83 82 82 79 75 73 73 70 67
186 188 190 194 197 199 203 206 213 202 197 190 160 160 170 182 176 149 123 108 118 117 127 131 145 156 151 152 156 160 158 163 158 159 155 152 154 152 153 156 139 99 89 93 95 95 105 108 345 141 154 158 155 150 143 134 133 141 142 140 134 129 125 122 116 112 106 104 101 99 98 100 100 97 95 90 84 83 84 79 75 75 72 71 67
190 190 192 199 203 202 200 206 211 205 192 194 191 177 171 183 180 177 137 136 136 142 147 150 160 160 164 162 164 162 163 163 165 161 158 157 150 159 155 159 159 151 129 102 87 85 82 85 159 131 226 157 167 161 147 143 145 146 144 144 140 140 138 127 118 112 111 108 106 105 106 105 103 101 95 94 91 87 82 78 71 65 67 68 59
200 191 198 202 206 205 200 203 199 204 198 199 201 187 175 181 184 183 163 151 143 152 156 161 165 169 169 170 167 165 167 167 170 168 161 151 161 158 162 165 164 159 147 144 101 77 72 58 80 137 138 169 174 179 165 161 158 149 145 151 151 142 133 130 126 121 118 117 118 117 115 116 112 107 103 96 90 84 81 77 75 68 63 61 56
202 200 200 201 205 205 202 194 196 200 204 195 198 192 178 180 176 175 169 168 158 149 154 162 170 167 168 172 168 166 169 176 183 177 158 164 169 166 169 168 174 146 118 101 73 78 56 68 67 88 154 171 186 221 187 176 163 151 149 152 151 147 141 134 129 129 125 125 128 133 132 127 122 115 112 100 90 88 83 77 70 69 61 50 48
212 205 195 201 208 169 188 189 195 203 200 201 202 199 181 170 172 177 165 164 167 155 154 158 161 165 167 168 172 165 184 189 185 171 162 170 169 174 176 176 142 125 123 46 81 171 91 36 36 70 122 171 188 193 198 184 166 184 153 153 153 149 141 143 141 133 135 140 138 135 138 135 125 120 112 107 101 90 85 83 79 71 55 52 52
212 200 199 206 205 190 202 189 195 196 190 195 204 191 178 179 168 178 170 163 168 168 162 157 153 157 165 165 167 185 177 176 181 171 182 170 171 178 177 169 177 164 116 83 354 6 296 123 123 137 59 29 192 182 176 200 179 211 157 157 156 152 149 149 147 145 142 136 131 136 140 137 133 130 124 118 113 101 94 88 82 66 57 57 53
211 198 209 208 204 194 178 211 202 198 187 184 197 197 193 185 171 170 172 172 169 168 161 157 154 159 161 166 176 176 167 187 188 194 178 190 176 171 181 183 173 160 105 75 26 310 301 325 218 201 117 28 101 172 167 187 182 214 178 164 160 158 155 157 156 153 146 138 135 134 129 135 142 138 135 131 123 111 103 97 83 72 63 64 66
213 206 206 204 205 198 197 211 211 193 184 178 178 178 196 187 180 168 161 154 154 149 152 154 150 146 144 141 153 169 171 178 190 195 174 199 196 181 186 170 163 148 125 123 143 115 62 95 91 141 174 100 55 108 161 177 192 210 153 208 173 164 162 163 158 151 144 137 138 135 135 139 140 143 141 132 128 120 112 103 89 73 75 73 66
220 209 206 208 206 205 198 212 204 183 189 189 178 175 182 178 166 164 165 159 156 161 156 156 144 130 121 116 115 124 171 186 183 178 195 189 197 195 179 175 151 158 153 157 150 146 130 128 134 158 170 154 134 107 107 152 180 195 184 192 194 132 184 161 160 155 146 141 142 153 159 157 145 142 139 135 132 126 110 93 85 87 81 77 75
229 205 218 223 215 197 169 211 208 190 169 158 164 155 150 132 158 140 147 148 156 178 161 151 151 162 153 133 113 85 55 50 169 181 204 179 197 202 180 198 174 161 165 164 163 160 132 128 141 135 146 140 125 130 142 146 151 165 173 176 191 172 168 154 171 152 148 142 130 130 128 133 150 155 143 137 127 112 102 103 98 90 87 82 80
211 201 217 225 229 212 185 200 212 181 151 158 162 154 148 162 178 155 146 144 122 200 185 190 168 171 165 152 158 138 139 204 180 186 195 198 178 206 198 196 182 170 168 176 175 143 122 126 135 132 123 122 116 115 110 92 72 76 79 151 170 177 177 174 158 142 143 128 117 109 108 108 113 128 141 133 120 112 112 108 102 95 91 90 85
193 210 213 222 214 212 212 207 199 172 189 178 175 167 160 172 182 181 147 146 156 185 198 210 197 157 164 204 173 188 161 195 169 126 211 201 208 207 199 190 178 172 178 185 166 141 136 141 142 128 117 106 108 108 102 92 96 85 68 107 158 160 167 159 156 144 136 117 108 109 103 101 104 118 131 133 123 118 114 110 107 102 97 93 88
210 192 214 206 205 210 214 212 190 196 178 177 184 185 189 172 188 177 171 154 160 170 196 188 202 191 157 157 157 204 205 149 154 151 168 172 201 187 204 199 180 182 188 181 164 146 142 144 131 123 124 117 112 108 105 112 109 102 96 84 97 130 142 141 137 140 129 117 114 110 107 107 114 118 123 129 127 123 119 114 109 105 98 93 92
185 191 227 222 211 199 212 213 199 179 168 163 166 164 186 179 183 179 152 159 163 148 191 196 201 187 292 327 32 210 184 154 166 160 176 179 170 189 202 197 189 190 192 175 175 151 151 147 144 131 130 124 119 112 99 94 99 101 98 100 107 119 130 135 141 135 122 124 121 115 112 114 121 126 129 132 130 127 122 116 110 105 102 99 98
178 184 200 221 222 210 210 205 195 181 154 179 168 186 195 183 149 135 161 157 175 169 189 176 193 204 212 249 334 326 192 154 188 139 159 162 171 182 196 198 199 197 194 185 169 162 155 160 152 144 136 140 124 113 113 95 77 78 73 88 98 114 134 147 133 123 127 131 126 119 119 118 122 127 127 126 127 126 122 117 112 109 109 108 106
200 194 194 179 228 219 218 204 201 196 189 189 197 201 191 188 181 180 185 182 186 176 176 176 184 197 191 200 206 235 199 188 189 179 177 168 170 183 191 186 194 199 207 191 181 171 161 177 171 158 156 143 142 131 110 113 119 120 112 89 89 91 93 92 107 129 132 131 131 130 128 127 126 126 125 129 129 124 123 121 118 114 114 113 110
200 194 174 165 206 225 221 209 205 201 192 204 203 199 199 198 196 184 196 203 197 186 176 191 197 195 185 200 199 198 188 189 190 215 170 169 178 178 175 180 200 196 202 198 190 176 176 178 170 165 153 149 150 140 128 126 129 122 119 99 95 95 97 104 111 119 128 130 130 132 134 135 135 135 135 135 129 128 128 126 123 121 119 116 114
199 177 163 162 167 230 228 212 207 199 199 203 192 193 208 209 206 198 196 201 201 195 200 197 204 207 192 189 190 176 178 183 189 180 173 188 174 193 183 172 183 183 184 190 188 185 191 175 177 179 163 163 159 156 143 143 140 144 115 115 112 109 111 115 114 112 111 119 131 135 137 138 140 139 138 139 139 136 132 130 130 131 127 122 120
196 182 180 183 174 197 210 212 209 207 203 201 183 200 217 207 203 197 199 194 195 203 198 217 200 212 203 200 201 191 188 191 187 186 183 175 176 179 181 187 188 166 183 175 182 188 190 180 183 177 173 172 163 161 164 142 144 108 123 128 126 123 122 121 119 117 120 125 133 139 144 146 145 146 148 145 144 142 140 139 137 132 130 129 128
200 182 187 197 182 192 195 207 210 212 216 208 195 188 205 213 204 199 198 179 204 203 204 212 206 211 209 210 210 206 206 199 183 190 190 189 181 175 181 179 181 172 158 162 178 188 192 189 187 178 181 173 170 165 150 163 124 125 153 135 133 133 130 128 126 125 128 132 136 146 153 154 152 152 152 151 150 149 145 139 136 135 138 141 138
195 190 202 197 191 192 198 200 201 204 210 206 206 193 185 217 208 207 201 189 206 211 207 210 206 209 211 215 220 215 216 215 179 203 200 190 193 172 175 173 173 160 159 170 174 189 194 193 191 188 182 177 164 170 167 170 158 166 163 145 143 140 142 138 136 136 137 140 148 159 164 159 159 156 154 157 155 149 148 135 118 129 144 146 147
205 206 208 205 197 189 193 202 200 199 192 196 198 215 201 210 214 210 206 203 203 207 213 213 207 210 205 208 213 213 219 198 180 208 191 193 198 182 157 178 178 166 159 183 177 182 191 200 192 189 187 179 170 163 174 169 156 148 207 158 153 150 149 149 147 150 153 155 165 178 173 168 166 160 159 163 154 137 115 108 124 118 101 78 57
223 213 217 201 198 193 197 201 202 197 194 185 195 214 217 210 210 211 209 207 215 212 215 211 207 220 204 216 212 214 215 191 192 218 207 203 196 174 165 162 171 179 170 182 183 211 179 185 191 189 187 167 171 177 174 180 150 138 190 175 167 159 157 155 156 159 165 169 176 191 185 180 172 162 157 125 114 117 130 134 130 125 101 80 55
226 209 210 199 199 199 198 207 207 196 197 191 203 204 208 212 213 213 214 211 215 214 217 213 207 201 202 215 220 226 222 195 213 209 217 206 200 179 181 172 168 176 181 183 199 207 198 184 179 195 180 175 172 175 167 167 172 142 207 198 180 171 171 167 168 167 171 176 176 186 188 173 157 137 130 133 130 137 147 151 137 127 120 100 78
226 213 212 195 197 202 206 207 202 194 202 208 207 201 202 208 214 216 216 207 212 215 216 215 216 207 208 211 216 219 223 206 188 212 222 220 203 196 198 191 182 175 180 192 198 201 184 203 187 179 188 171 172 171 178 201 155 166 193 202 188 188 169 183 176 174 179 179 182 187 187 174 158 151 150 152 153 160 164 161 155 155 167 168 157
226 208 203 194 196 197 198 200 203 199 199 204 190 177 179 187 225 224 218 210 213 218 217 218 216 213 208 210 212 220 222 209 200 207 202 212 205 204 207 208 202 197 182 191 191 200 180 187 207 164 174 173 168 170 185 203 132 189 193 201 196 199 152 190 181 183 186 189 191 197 198 191 181 174 174 173 175 177 180 177 175 178 193 207 202
228 211 203 208 198 191 191 192 198 200 191 188 178 179 193 201 212 218 213 208 209 211 215 216 216 215 209 210 214 222 219 210 206 204 206 202 207 207 211 215 208 219 199 202 203 179 199 180 196 195 165 173 172 168 180 201 155 190 196 192 213 127 152 189 195 192 198 197 200 205 209 207 201 194 190 191 193 195 200 201 196 200 208 218 219
231 221 213 209 203 195 192 199 205 199 185 191 191 197 199 204 209 215 213 207 210 213 212 209 211 210 213 214 214 212 220 215 192 198 204 210 208 212 210 212 210 212 215 214 226 167 188 196 180 179 162 162 172 177 181 190 142 184 203 198 158 111 200 198 184 207 206 210 207 212 219 213 214 215 212 212 213 213 215 218 215 215 218 223 225
224 221 215 207 203 200 197 202 202 194 189 188 190 194 196 203 211 213 212 208 208 209 209 207 208 209 211 215 211 205 202 206 198 216 207 200 199 209 213 209 213 203 209 217 219 182 131 133 154 166 162 163 180 195 188 183 176 186 204 198 184 200 208 217 197 186 206 210 218 219 227 232 223 226 225 226 228 228 226 225 226 226 227 228 231
221 222 216 207 201 195 199 203 201 194 188 188 184 182 191 197 208 212 216 208 208 211 206 207 206 208 213 215 217 159 200 207 197 208 200 193 198 205 206 211 211 201 203 218 213 212 156 165 176 157 161 190 200 185 197 188 186 186 191 191 192 207 215 218 220 191 183 204 211 216 227 229 228 231 232 228 233 237 239 239 238 241 242 241 242
222 223 218 211 202 193 200 206 204 195 184 182 190 181 183 193 205 210 214 212 209 211 209 209 207 203 203 207 203 181 206 199 202 210 197 196 198 205 206 186 200 222 206 215 207 206 187 170 178 175 181 183 208 187 195 191 185 187 195 198 201 199 215 219 222 228 165 196 203 218 225 229 234 234 233 236 238 238 241 245 248 252 252 250 247
229 222 223 217 207 196 201 208 202 193 184 180 185 191 190 196 203 210 212 213 212 212 213 212 209 207 204 201 205 198 201 205 206 205 200 195 197 205 204 193 192 210 199 202 214 214 196 170 184 192 180 177 199 187 173 175 180 187 204 207 201 208 208 209 221 238 170 186 202 219 224 228 234 237 236 239 240 240 244 246 248 251 254 255 255
235 229 223 223 214 204 202 201 194 186 179 179 179 184 190 193 200 206 211 213 215 216 216 216 214 210 207 207 205 200 200 205 206 207 202 198 202 204 207 204 204 188 188 208 212 208 187 201 161 184 165 185 185 183 180 185 181 193 199 210 208 212 214 216 224 222 186 171 204 219 226 227 231 234 237 238 238 241 243 246 247 248 249 251 251
241 237 229 223 219 210 206 201 191 182 180 182 182 180 182 184 192 204 213 217 219 220 217 216 214 214 216 210 209 201 204 209 208 207 205 202 202 206 208 210 206 187 193 202 209 204 207 214 174 164 188 182 184 190 188 196 187 186 196 203 208 214 212 215 219 216 216 210 210 207 212 225 225 229 235 233 236 240 242 242 243 244 246 248 249
242 235 228 227 223 220 213 201 193 187 182 180 179 177 177 178 186 196 209 217 223 224 223 219 218 218 220 221 218 211 210 212 211 206 201 199 204 208 208 205 211 198 175 208 206 203 206 204 187 185 178 191 191 185 183 194 202 206 196 191 213 210 211 216 217 206 207 217 216 211 238 262 271 247 214 221 231 237 243 243 244 246 251 255 257
254 245 237 227 228 227 219 199 184 188 185 180 176 175 174 175 179 192 200 210 215 219 224 222 221 223 205 211 222 218 216 211 210 200 193 207 210 211 205 206 207 203 193 199 184 190 201 210 205 187 190 171 179 175 145 176 195 213 217 213 220 209 205 206 214 211 199 207 229 216 203 218 231 236 244 245 237 238 243 251 251 251 252 254 255
264 257 249 240 232 225 219 207 196 195 193 178 175 176 175 175 179 186 197 203 207 212 216 219 217 212 193 211 217 221 219 225 198 177 194 235 224 213 211 204 203 203 207 155 91 13 258 223 209 192 178 187 189 178 183 192 201 207 191 200 227 225 206 192 202 207 220 223 230 236 236 217 229 237 240 244 235 213 233 231 252 251 249 254 257
278 269 258 247 234 224 208 196 197 201 196 179 159 173 176 171 176 185 193 202 202 204 208 210 212 208 197 198 214 222 208 188 189 192 194 200 234 258 230 206 206 208 194 134 164 202 213 212 216 194 194 202 196 193 200 206 200 179 168 191 214 206 198 229 226 206 194 219 236 240 240 213 234 254 248 253 253 209 258 229 250 283 281 261 261
278 267 262 247 230 222 204 189 188 205 200 165 154 167 171 170 173 185 195 202 203 204 205 205 206 208 205 205 210 180 189 183 184 180 184 190 198 218 227 218 222 189 155 140 195 216 210 214 205 196 209 211 202 198 207 194 186 194 196 192 202 196 211 217 229 149 171 208 217 243 242 189 230 254 249 250 224 259 283 297 20 323 288 286 281
9 351 281 262 249 235 206 182 181 184 169 108 157 165 173 176 188 187 200 204 204 206 204 201 203 202 202 199 201 193 204 200 179 153 113 94 145 62 61 58 38 23 11 203 217 206 219 231 208 203 210 219 203 190 195 188 186 183 190 186 194 202 203 216 226 224 102 189 203 238 249 152 233 256 269 265 288 332 351 351 317 283 279 281 287
20 34 26 358 339 311 238 173 153 152 151 104 180 171 178 178 184 202 192 201 204 205 201 200 198 195 192 186 183 183 148 116 146 152 141 118 95 95 95 91 68 55 42 36 28 329 221 228 243 210 219 221 199 197 191 183 170 179 174 192 197 201 208 218 222 143 116 84 262 254 262 141 192 247 273 343 358 351 269 192 215 254 286 288 281
19 18 14 18 11 1 351 21 99 85 115 357 279 195 180 176 175 194 202 189 199 200 203 203 200 198 193 188 182 172 156 162 157 155 146 138 136 129 119 104 87 72 64 41 55 51 247 191 231 241 139 2 260 174 147 158 176 193 186 196 182 191 190 117 75 82 74 17 306 318 274 170 68 325 308 351 17 340 323 358 285 75 246 270 290
25 21 17 12 8 3 3 354 39 61 15 341 290 207 182 176 171 193 197 186 194 198 197 195 189 175 174 173 169 161 158 166 164 157 147 139 126 111 101 87 75 66 50 39 21 64 92 15 358 72 78 74 72 86 113 130 205 277 330 148 135 124 111 109 100 98 87 51 20 274 267 20 21 328 309 342 343 329 336 333 81 52 40 19 18
34 31 28 24 14 10 4 3 357 17 18 355 326 225 171 167 164 183 175 168 168 158 158 153 159 160 163 165 162 154 157 156 136 147 135 124 110 104 98 96 93 79 67 57 72 59 59 79 70 64 69 67 60 68 58 86 111 105 103 100 103 124 141 150 130 132 104 70 21 304 262 266 23 313 331 337 334 323 328 315 85 59 22 1 3
44 38 36 32 24 17 14 10 4 354 353 356 347 315 161 155 161 155 146 148 132 129 117 117 116 104 110 155 160 154 148 140 141 141 136 131 126 123 118 111 104 96 93 78 75 84 82 78 81 78 76 74 70 63 54 33 24 46 127 123 108 143 158 169 125 143 138 121 43 345 292 292 22 350 322 322 324 313 306 310 332 41 335 342 13
39 39 40 44 36 26 20 17 5 357 350 351 357 8 305 200 164 140 145 139 127 123 115 94 99 90 60 32 28 152 144 140 152 149 150 133 126 124 123 117 109 104 104 103 94 80 87 86 79 74 65 65 66 62 53 44 33 11 88 95 90 94 83 58 113 141 135 145 74 345 309 315 348 316 309 313 308 278 299 324 330 319 347 347 351
45 41 38 38 38 37 31 24 18 13 359 344 350 8 32 344 247 133 136 132 132 132 126 107 87 88 77 53 29 27 108 136 151 156 170 153 132 143 137 121 115 114 117 120 110 107 94 82 66 64 61 47 54 59 52 48 38 38 55 68 57 107 105 118 154 182 188 151 62 347 300 314 326 353 355 327 311 321 293 347 321 334 332 331 338